Simultaneous Nadir Overpasses (SNOs) Predictions

Prediction of SNOs between GOES-16 and NPP Satellite Orbit:

Table of predicted SNOs for the next 14.0 days since TLE Epoch: 2/24/2024
Index Date Time (GOES-16) GOES-16 Lat,Lon NPP Lat,Lon Distance(km) Time Diff (sec)
1 02/24/2024 18:33:24 0.07, -75.21 -0.39, -77.27 235.05 80
2 02/25/2024 18:17:19 0.07, -75.22 0.62, -72.74 282.49 80
3 02/27/2024 06:39:05 -0.07, -75.23 0.58, -78.00 316.26 80
4 02/28/2024 06:17:41 -0.07, -75.24 -0.49, -73.47 201.45 80
5 02/29/2024 18:39:35 0.06, -75.25 -0.74, -78.76 400.62 80
6 03/01/2024 18:23:29 0.06, -75.26 0.28, -74.23 117.42 80
7 03/03/2024 06:45:16 -0.06, -75.28 0.91, -79.49 480.50 80
8 03/04/2024 06:23:50 -0.05, -75.29 -0.10, -74.95 37.51 80
9 03/06/2024 18:27:00 0.04, -75.31 -0.03, -75.73 46.29 80
10 03/07/2024 18:10:54 0.04, -75.33 0.94, -71.18 472.29 80
